Owen Roberts International Airport
MWCR : now visible

Airfield :











YOU CAN JOIN US ON...

 
LOGIN :

Register | Disclaimer

   EN    FR    IT 

 









Legend :    VFR   Marginal VFR   IFR   Intensive IFR   Very Intensive IFR
Visi :
Ceiling :
>= 8 km
>= 3000ft
5 to 8 km
1000 to 3000 ft
1500m to 5 km
500 to 1000 ft
800 to 1500m
200 to 500 ft
< 800m
< 200 ft
Symbols :   Thunderstorms  Fog  Heavy snow  Heavy precipitations  Wind > 20 kt






- Airport Elevation : 8 ft
- IATA code : GCM


MWCR - Owen Roberts International

CURRENT METAR :
  • 072000Z 03005KT 350V080 9999 FEW022 31/24 Q1015

EXPIRED METARs :
  • 071900Z 05006KT 020V080 9999 FEW022 30/24 Q1016
  • 071800Z 07004KT 360V160 9999 SCT020 31/24 Q1017

TAF TAF MWCR
Valid from the 07 at 18:00 until the 08 at 18:00 UTC


071700Z 0718/0818 07008KT 9999 FEW018



MET'MAP, your aeronautical weather chart ! - Copyright ORBIFLY December 2007 - Disclaimer

ORBIFLY MET'MAP TEAM :

Programming & Development : Alexandra Zaïnal
Concept & original design : Baudouin d'Aumeries
Assistance for programming : Marc-Olivier Méhu
Technical & hardware support : Manuel Goepfert

Contact : metmap@orbifly.com




SOURCES & CREDITS :

   NOAA       Earth
Advisory